Total_Precipitation_Accumulation
0.05 0.10 0.16 0.18 0.15 0.13 0.10 0.10 0.12 0.14 0.21 0.26 0.32 0.27 0.18 0.22 0.28 0.20 0.17 0.17 0.15 0.16 0.15 0.13 0.14 0.16 0.17 0.20 0.23 0.24 0.26 0.32 0.35 0.41 0.45 0.47 0.50 0.55 0.60 0.63 0.64 0.69 0.75 0.73
0.06 0.10 0.12 0.13 0.16 0.12 0.08 0.07 0.08 0.10 0.17 0.23 0.28 0.33 0.29 0.23 0.23 0.22 0.21 0.20 0.22 0.25 0.22 0.20 0.18 0.18 0.18 0.22 0.30 0.36 0.41 0.43 0.41 0.44 0.49 0.49 0.53 0.56 0.64 0.68 0.73 0.80 0.84 0.84
0.15 0.15 0.15 0.16 0.15 0.11 0.09 0.10 0.11 0.12 0.17 0.24 0.30 0.34 0.37 0.36 0.29 0.28 0.33 0.33 0.39 0.45 0.37 0.28 0.25 0.25 0.26 0.30 0.35 0.42 0.49 0.59 0.60 0.60 0.63 0.64 0.67 0.70 0.75 0.85 0.89 0.91 0.89 0.88
0.21 0.24 0.27 0.18 0.14 0.12 0.11 0.13 0.14 0.18 0.24 0.29 0.37 0.43 0.49 0.55 0.51 0.42 0.37 0.37 0.40 0.42 0.46 0.44 0.41 0.40 0.41 0.44 0.48 0.59 0.70 0.80 0.86 0.89 0.93 0.99 1.03 0.99 1.01 1.06 1.11 1.09 1.03 1.03
0.32 0.37 0.31 0.23 0.21 0.20 0.21 0.24 0.26 0.34 0.47 0.53 0.53 0.58 0.62 0.56 0.46 0.40 0.38 0.37 0.45 0.47 0.49 0.50 0.58 0.58 0.55 0.55 0.60 0.76 0.91 1.02 1.06 1.11 1.17 1.21 1.19 1.23 1.31 1.38 1.39 1.39 1.32 1.32
0.39 0.43 0.43 0.39 0.35 0.34 0.41 0.60 0.52 0.57 0.61 0.56 0.51 0.63 0.60 0.48 0.42 0.39 0.37 0.39 0.47 0.53 0.52 0.57 0.70 0.69 0.68 0.72 0.78 0.83 0.87 0.96 1.12 1.28 1.40 1.38 1.37 1.48 1.60 1.70 1.66 1.64 1.64 1.65
0.46 0.48 0.41 0.42 0.40 0.45 0.75 0.94 0.77 0.71 0.68 0.64 0.69 0.69 0.63 0.51 0.41 0.34 0.32 0.37 0.43 0.47 0.50 0.51 0.60 0.70 0.84 0.95 0.98 0.98 1.03 1.10 1.22 1.37 1.51 1.53 1.58 1.61 1.70 1.79 1.78 1.75 1.69 1.64
0.68 0.75 0.71 0.49 0.52 0.75 0.89 0.73 0.70 0.76 0.82 0.81 0.74 0.65 0.52 0.45 0.40 0.31 0.30 0.31 0.35 0.42 0.46 0.50 0.60 0.74 0.92 1.07 1.15 1.20 1.28 1.41 1.46 1.52 1.51 1.48 1.58 1.67 1.72 1.79 1.78 1.76 1.78 1.68
0.85 0.87 0.77 0.64 0.69 0.66 0.63 0.68 0.72 0.74 0.84 0.84 0.74 0.71 0.57 0.48 0.41 0.34 0.31 0.29 0.31 0.36 0.43 0.51 0.61 0.76 0.99 1.08 1.17 1.24 1.32 1.40 1.51 1.56 1.58 1.55 1.59 1.63 1.74 1.80 1.79 1.73 1.73 1.74
0.91 0.90 0.79 0.74 0.74 0.65 0.59 0.62 0.65 0.67 0.69 0.72 0.67 0.70 0.67 0.57 0.45 0.38 0.33 0.29 0.30 0.35 0.42 0.50 0.53 0.60 0.74 0.84 0.93 1.02 1.08 1.14 1.19 1.29 1.39 1.50 1.61 1.60 1.61 1.68 1.75 1.78 1.76 1.69
0.94 1.02 1.06 0.97 0.86 0.78 0.71 0.72 0.76 0.76 0.71 0.68 0.58 0.57 0.60 0.54 0.44 0.38 0.33 0.29 0.31 0.38 0.39 0.43 0.49 0.52 0.57 0.66 0.83 0.93 0.94 0.97 1.05 1.15 1.25 1.40 1.54 1.59 1.51 1.51 1.57 1.55 1.47 1.41
0.85 0.89 1.05 1.11 1.00 0.88 0.80 0.84 0.85 0.82 0.75 0.68 0.57 0.49 0.41 0.37 0.31 0.30 0.28 0.30 0.35 0.39 0.39 0.40 0.44 0.48 0.51 0.61 0.77 0.88 0.90 0.88 0.91 0.97 1.07 1.18 1.29 1.35 1.23 1.06 1.04 1.00 0.90 0.81
0.68 0.74 0.82 0.93 0.94 0.88 0.84 0.85 0.79 0.72 0.63 0.60 0.50 0.42 0.34 0.30 0.28 0.27 0.30 0.36 0.41 0.45 0.47 0.46 0.45 0.46 0.48 0.56 0.72 0.90 0.90 0.83 0.82 0.85 0.91 0.97 1.06 1.16 1.18 1.02 0.80 0.70 0.58 0.46
0.71 0.76 0.86 0.93 0.89 0.81 0.79 0.73 0.66 0.66 0.62 0.59 0.52 0.44 0.36 0.33 0.32 0.33 0.38 0.44 0.48 0.48 0.46 0.48 0.50 0.48 0.48 0.53 0.63 0.90 0.98 0.88 0.79 0.77 0.82 0.86 0.91 0.98 1.05 1.10 1.00 0.80 0.57 0.38
0.69 0.70 0.71 0.66 0.68 0.71 0.74 0.74 0.66 0.61 0.55 0.54 0.53 0.45 0.39 0.37 0.36 0.38 0.43 0.50 0.56 0.54 0.50 0.48 0.48 0.46 0.48 0.51 0.57 0.69 0.88 0.91 0.84 0.79 0.82 0.86 0.89 0.92 0.98 1.01 1.07 1.03 0.80 0.53
0.69 0.70 0.67 0.65 0.66 0.63 0.62 0.66 0.68 0.58 0.49 0.51 0.52 0.43 0.40 0.39 0.39 0.40 0.45 0.58 0.76 0.77 0.67 0.60 0.56 0.49 0.48 0.51 0.54 0.60 0.70 0.66 0.63 0.69 0.73 0.80 0.85 0.88 0.91 0.98 1.03 1.05 0.94 0.71
0.69 0.70 0.68 0.67 0.66 0.58 0.52 0.55 0.56 0.52 0.43 0.42 0.50 0.51 0.47 0.48 0.52 0.55 0.59 0.66 0.76 0.78 0.73 0.70 0.61 0.49 0.45 0.47 0.50 0.51 0.56 0.50 0.40 0.50 0.63 0.70 0.76 0.80 0.82 0.88 0.95 0.98 0.90 0.61
0.63 0.60 0.55 0.52 0.54 0.56 0.53 0.48 0.44 0.41 0.39 0.39 0.48 0.56 0.56 0.63 0.75 0.82 0.83 0.84 0.81 0.69 0.62 0.62 0.52 0.42 0.38 0.37 0.40 0.44 0.54 0.53 0.40 0.43 0.57 0.63 0.66 0.79 0.83 0.85 0.88 0.90 0.81 0.57
0.57 0.53 0.44 0.38 0.35 0.39 0.43 0.43 0.39 0.35 0.35 0.38 0.50 0.59 0.61 0.66 0.76 0.84 0.84 0.92 0.98 0.88 0.70 0.56 0.45 0.37 0.35 0.30 0.28 0.35 0.46 0.51 0.42 0.40 0.51 0.50 0.58 0.77 0.82 0.82 0.84 0.84 0.71 0.60
0.47 0.43 0.36 0.32 0.29 0.30 0.32 0.34 0.33 0.33 0.34 0.39 0.50 0.55 0.60 0.66 0.71 0.77 0.76 0.81 0.92 0.93 0.78 0.58 0.39 0.31 0.26 0.22 0.23 0.30 0.40 0.48 0.41 0.34 0.38 0.48 0.59 0.71 0.77 0.76 0.78 0.81 0.72 0.62
0.37 0.31 0.26 0.25 0.27 0.28 0.26 0.26 0.28 0.34 0.36 0.40 0.49 0.56 0.61 0.60 0.60 0.67 0.79 0.85 0.77 0.79 0.76 0.65 0.45 0.30 0.21 0.20 0.22 0.31 0.41 0.47 0.39 0.30 0.32 0.41 0.56 0.68 0.75 0.76 0.77 0.76 0.69 0.62
0.29 0.26 0.23 0.22 0.24 0.27 0.25 0.24 0.26 0.28 0.33 0.42 0.48 0.52 0.59 0.56 0.55 0.55 0.58 0.70 0.73 0.79 0.74 0.67 0.55 0.39 0.26 0.20 0.21 0.27 0.37 0.43 0.39 0.30 0.28 0.36 0.51 0.61 0.68 0.72 0.75 0.73 0.69 0.67
0.28 0.24 0.21 0.20 0.20 0.20 0.19 0.20 0.19 0.22 0.34 0.48 0.53 0.56 0.60 0.55 0.57 0.67 0.63 0.52 0.56 0.69 0.62 0.55 0.53 0.43 0.30 0.23 0.22 0.27 0.38 0.46 0.45 0.34 0.30 0.36 0.44 0.49 0.56 0.61 0.63 0.68 0.72 0.68
0.32 0.25 0.22 0.20 0.17 0.16 0.19 0.18 0.16 0.19 0.32 0.43 0.42 0.46 0.50 0.50 0.51 0.52 0.52 0.51 0.54 0.60 0.52 0.48 0.45 0.42 0.38 0.34 0.34 0.36 0.41 0.45 0.43 0.33 0.30 0.34 0.37 0.40 0.48 0.57 0.65 0.71 0.68 0.61
0.28 0.23 0.20 0.19 0.18 0.18 0.18 0.16 0.15 0.17 0.29 0.42 0.37 0.36 0.37 0.40 0.50 0.52 0.48 0.46 0.51 0.53 0.49 0.48 0.43 0.40 0.38 0.46 0.52 0.50 0.45 0.43 0.39 0.33 0.30 0.31 0.35 0.39 0.46 0.59 0.69 0.70 0.63 0.60
0.27 0.25 0.22 0.20 0.18 0.16 0.15 0.15 0.16 0.18 0.33 0.56 0.52 0.42 0.38 0.36 0.39 0.46 0.53 0.52 0.51 0.54 0.51 0.47 0.41 0.41 0.42 0.51 0.57 0.53 0.45 0.41 0.39 0.37 0.35 0.36 0.41 0.47 0.55 0.64 0.65 0.57 0.51 0.48
0.22 0.20 0.19 0.18 0.16 0.15 0.15 0.18 0.21 0.24 0.37 0.62 0.66 0.48 0.40 0.39 0.43 0.49 0.56 0.59 0.55 0.53 0.50 0.44 0.39 0.37 0.38 0.43 0.44 0.44 0.42 0.41 0.42 0.41 0.39 0.40 0.41 0.46 0.49 0.53 0.53 0.46 0.42 0.39